Location: Unspecified
(41.1637°N, 24.2901°E)
Time: 07:39:37
(UTC+01:00)

ISS - Pass Details

Date: 11 December 2018
Orbit: 401 x 408 km, 51.6° (Epoch: 12 December)

Event Time Altitude Azimuth Distance (km) Brightness Sun altitude
Rises 16:38:43 0° 309° (NW) 2,319 0.4 -8.3°
Reaches altitude 10° 16:40:53 10° 317° (NW) 1,456 -0.8 -8.7°
Maximum altitude 16:43:59 39° 29° (NNE) 613 -3.3 -9.2°
Enters shadow 16:47:00 10° 100° (E) 1,426 -1.6 -9.8°
